Location: Artiguedieu
(43.5000°N, 0.5454°E)
Time: 20:49:59
(UTC+00:00)

Transit 2A - Pass Details

Date: 25 July 2021
Orbit: 594 x 964 km, 66.7° (Epoch: 28 September)

Event Time Altitude Azimuth Distance (km) Brightness Sun altitude
Rises 14:27:53 0° 339° (NNW) 3,141 9.1 51.6°
Reaches altitude 10° 14:31:22 10° 5° (N) 2,301 8.4 51.1°
Maximum altitude 14:34:09 14° 37° (NE) 2,082 8.1 50.6°
Drops below altitude 10° 14:37:04 10° 69° (ENE) 2,431 8.3 50.1°
Sets 14:40:55 0° 93° (E) 3,447 9.0 49.5°
